Location: Eymir
(36.7333°N, 29.7833°E)
Time: 18:06:57
(UTC+00:00)

Cosmos 1515 Rocket - Pass Details

Date: 14 January 2026
Orbit: 599 x 623 km, 82.5° (Epoch: 17 February)

Event Time Altitude Azimuth Distance (km) Brightness Sun altitude
Exits shadow 03:44:53 19° 336° (NNW) 1,490 5.2 -17.4°
Maximum altitude 03:47:50 51° 267° (W) 779 3.7 -16.8°
Drops below altitude 10° 03:52:02 10° 192° (SSW) 1,961 6.2 -16.0°
Sets 03:54:16 0° 187° (S) 2,857 7.1 -15.5°
